• In Moldova, Republic
  • List of Countries
  • For 7 days
  • Water Temperature
  • Satellite Maps
  • Weather Map
  • Weather Widgets
  • user-avatar
    Login

    Hourly Weather Brisbane

    Today, 24 September, Sunday

    Time Temperature Precipitation Wind Pressure Humidity
    00:00 +22°C° 0 mm 4 mps 758 mmHg 63%
    01:00 +21°C° 0 mm 4 mps 758 mmHg 63%
    02:00 +21°C° 0 mm 4 mps 758 mmHg 63%
    03:00 +21°C° 0 mm 4 mps 758 mmHg 63%
    04:00 +21°C° 0 mm 3 mps 757 mmHg 60%
    05:00 +21°C° 0 mm 4 mps 758 mmHg 57%
    06:00 +22°C° 0 mm 4 mps 758 mmHg 54%
    07:00 +23°C° 0 mm 5 mps 758 mmHg 51%
    08:00 +27°C° 0 mm 5 mps 758 mmHg 42%
    09:00 +30°C° 0 mm 5 mps 758 mmHg 33%
    10:00 +32°C° 0 mm 5 mps 758 mmHg 30%
    11:00 +34°C° 0 mm 6 mps 758 mmHg 25%
    12:00 +36°C° 0 mm 6 mps 757 mmHg 21%
    13:00 +40°C° 0 mm 6 mps 756 mmHg 17%
    14:00 +39°C° 0 mm 7 mps 756 mmHg 19%
    15:00 +39°C° 0 mm 7 mps 755 mmHg 20%
    16:00 +35°C° 0 mm 8 mps 755 mmHg 29%
    17:00 +33°C° 0 mm 8 mps 755 mmHg 33%
    18:00 +30°C° 0 mm 7 mps 756 mmHg 38%
    19:00 +29°C° 0 mm 6 mps 756 mmHg 42%
    20:00 +28°C° 0 mm 6 mps 756 mmHg 45%
    21:00 +27°C° 0 mm 6 mps 757 mmHg 48%
    22:00 +26°C° 0 mm 6 mps 757 mmHg 52%
    23:00 +24°C° 0 mm 6 mps 757 mmHg 53%

    Tomorrow, 25 September, Monday

    Time Temperature Precipitation Wind Pressure Humidity
    00:00 +25°C° 0 mm 5 mps 757 mmHg 54%
    01:00 +23°C° 0 mm 5 mps 757 mmHg 56%
    02:00 +23°C° 0 mm 5 mps 757 mmHg 56%
    03:00 +23°C° 0 mm 4 mps 757 mmHg 56%
    04:00 +23°C° 0 mm 4 mps 757 mmHg 56%
    05:00 +23°C° 0 mm 4 mps 758 mmHg 53%
    06:00 +25°C° 0 mm 4 mps 758 mmHg 50%
    07:00 +26°C° 0 mm 4 mps 759 mmHg 47%
    08:00 +28°C° 0 mm 4 mps 759 mmHg 38%
    09:00 +32°C° 0 mm 4 mps 759 mmHg 30%
    10:00 +35°C° 0 mm 4 mps 759 mmHg 21%
    11:00 +36°C° 0 mm 5 mps 758 mmHg 19%
    12:00 +37°C° 0 mm 5 mps 757 mmHg 18%
    13:00 +40°C° 0 mm 6 mps 757 mmHg 16%
    14:00 +39°C° 0 mm 6 mps 756 mmHg 17%
    15:00 +39°C° 0 mm 6 mps 756 mmHg 19%
    16:00 +39°C° 0 mm 6 mps 755 mmHg 20%
    17:00 +35°C° 0 mm 6 mps 756 mmHg 25%
    18:00 +33°C° 0 mm 6 mps 756 mmHg 31%
    19:00 +30°C° 0 mm 6 mps 756 mmHg 36%
    20:00 +30°C° 0 mm 6 mps 757 mmHg 38%
    21:00 +29°C° 0 mm 6 mps 757 mmHg 39%
    22:00 +29°C° 0 mm 6 mps 758 mmHg 40%
    23:00 +28°C° 0 mm 5 mps 757 mmHg 40%

    Day after tomorrow, 26 September, Tuesday

    Time Temperature Precipitation Wind Pressure Humidity
    00:00 +28°C° 0 mm 4 mps 757 mmHg 40%
    01:00 +27°C° 0 mm 4 mps 757 mmHg 39%
    02:00 +27°C° 0 mm 4 mps 757 mmHg 40%
    03:00 +26°C° 0 mm 3 mps 757 mmHg 40%
    04:00 +25°C° 0 mm 3 mps 757 mmHg 41%
    05:00 +26°C° 0 mm 3 mps 758 mmHg 41%
    06:00 +26°C° 0 mm 3 mps 758 mmHg 40%
    07:00 +26°C° 0 mm 3 mps 759 mmHg 40%
    08:00 +29°C° 0 mm 2 mps 759 mmHg 34%
    09:00 +32°C° 0 mm 2 mps 759 mmHg 29%
    10:00 +36°C° 0 mm 2 mps 760 mmHg 23%
    11:00 +37°C° 0 mm 3 mps 759 mmHg 22%
    12:00 +37°C° 0 mm 4 mps 758 mmHg 21%
    13:00 +39°C° 0 mm 5 mps 758 mmHg 20%
    14:00 +36°C° 0 mm 5 mps 757 mmHg 28%
    15:00 +34°C° 0 mm 4 mps 757 mmHg 36%
    16:00 +32°C° 0 mm 4 mps 757 mmHg 43%
    17:00 +29°C° 0 mm 4 mps 757 mmHg 53%
    18:00 +26°C° 0 mm 3 mps 758 mmHg 63%
    19:00 +24°C° 0 mm 3 mps 759 mmHg 73%
    20:00 +24°C° 0 mm 3 mps 759 mmHg 76%
    21:00 +22°C° 0 mm 3 mps 760 mmHg 79%
    22:00 +22°C° 0 mm 3 mps 761 mmHg 82%
    23:00 +21°C° 0 mm 3 mps 761 mmHg 83%

    27 September, Wednesday

    Time Temperature Precipitation Wind Pressure Humidity
    00:00 +21°C° 0 mm 3 mps 760 mmHg 85%
    01:00 +21°C° 0 mm 4 mps 760 mmHg 86%
    02:00 +21°C° 0 mm 3 mps 760 mmHg 86%
    03:00 +21°C° 0 mm 3 mps 760 mmHg 86%
    04:00 +21°C° 0 mm 2 mps 760 mmHg 86%
    05:00 +23°C° 0 mm 2 mps 760 mmHg 84%
    06:00 +23°C° 0 mm 2 mps 761 mmHg 83%
    07:00 +23°C° 0 mm 1 mps 761 mmHg 81%
    08:00 +25°C° 0 mm 1 mps 761 mmHg 76%
    09:00 +26°C° 0 mm 2 mps 761 mmHg 71%
    10:00 +27°C° 0 mm 2 mps 761 mmHg 66%
    11:00 +30°C° 0 mm 2 mps 760 mmHg 58%
    12:00 +33°C° 0 mm 3 mps 759 mmHg 49%
    13:00 +35°C° 0 mm 3 mps 759 mmHg 41%
    14:00 +34°C° 0 mm 4 mps 758 mmHg 44%
    15:00 +33°C° 0 mm 5 mps 757 mmHg 48%
    16:00 +32°C° 0 mm 5 mps 757 mmHg 51%
    17:00 +30°C° 0 mm 5 mps 757 mmHg 58%
    18:00 +28°C° 0 mm 5 mps 757 mmHg 65%
    19:00 +26°C° 0 mm 5 mps 758 mmHg 72%
    20:00 +26°C° 0 mm 5 mps 758 mmHg 71%
    21:00 +25°C° 0 mm 5 mps 758 mmHg 69%
    22:00 +25°C° 0 mm 5 mps 758 mmHg 67%
    23:00 +25°C° 0 mm 4 mps 758 mmHg 63%

    28 September, Thursday

    Time Temperature Precipitation Wind Pressure Humidity
    00:00 +25°C° 0 mm 4 mps 758 mmHg 60%
    01:00 +25°C° 0 mm 4 mps 757 mmHg 56%
    02:00 +25°C° 0 mm 4 mps 757 mmHg 53%
    03:00 +25°C° 0 mm 4 mps 757 mmHg 50%
    04:00 +25°C° 0 mm 4 mps 757 mmHg 47%
    05:00 +26°C° 0 mm 4 mps 757 mmHg 44%
    06:00 +27°C° 0 mm 4 mps 758 mmHg 41%
    07:00 +29°C° 0 mm 5 mps 758 mmHg 38%
    08:00 +32°C° 0 mm 5 mps 758 mmHg 30%
    09:00 +35°C° 0 mm 5 mps 758 mmHg 23%
    10:00 +39°C° 0 mm 6 mps 758 mmHg 16%
    11:00 +40°C° 0 mm 6 mps 758 mmHg 15%
    12:00 +41°C° 0 mm 6 mps 757 mmHg 14%
    13:00 +42°C° 0 mm 6 mps 756 mmHg 13%
    14:00 +41°C° 0 mm 6 mps 756 mmHg 14%
    15:00 +41°C° 0 mm 6 mps 756 mmHg 15%
    16:00 +41°C° 0 mm 5 mps 756 mmHg 15%
    17:00 +37°C° 0 mm 5 mps 756 mmHg 20%
    18:00 +34°C° 0 mm 4 mps 757 mmHg 26%
    19:00 +32°C° 0 mm 4 mps 758 mmHg 31%
    20:00 +29°C° 0 mm 3 mps 758 mmHg 34%
    21:00 +28°C° 0 mm 3 mps 758 mmHg 37%
    22:00 +26°C° 0 mm 2 mps 759 mmHg 41%
    23:00 +26°C° 0 mm 2 mps 758 mmHg 44%

    29 September, Friday

    Time Temperature Precipitation Wind Pressure Humidity
    00:00 +25°C° 0 mm 2 mps 758 mmHg 47%
    01:00 +24°C° 0 mm 2 mps 758 mmHg 51%
    02:00 +24°C° 0 mm 2 mps 758 mmHg 51%
    03:00 +23°C° 0 mm 1 mps 759 mmHg 51%
    04:00 +23°C° 0 mm 1 mps 759 mmHg 51%
    05:00 +24°C° 0 mm 1 mps 759 mmHg 48%
    06:00 +25°C° 0 mm 1 mps 760 mmHg 45%
    07:00 +25°C° 0 mm 1 mps 760 mmHg 43%
    08:00 +28°C° 0 mm 1 mps 760 mmHg 38%
    09:00 +30°C° 0 mm 2 mps 760 mmHg 33%
    10:00 +34°C° 0 mm 2 mps 760 mmHg 27%
    11:00 +35°C° 0 mm 3 mps 759 mmHg 25%
    12:00 +37°C° 0 mm 3 mps 759 mmHg 22%
    13:00 +38°C° 0 mm 4 mps 758 mmHg 19%
    14:00 +38°C° 0 mm 4 mps 758 mmHg 21%
    15:00 +37°C° 0 mm 5 mps 757 mmHg 23%
    16:00 +37°C° 0 mm 5 mps 757 mmHg 25%
    17:00 +35°C° 0 mm 4 mps 758 mmHg 30%
    18:00 +32°C° 0 mm 4 mps 758 mmHg 35%
    19:00 +29°C° 0 mm 3 mps 758 mmHg 39%
    20:00 +28°C° 0 mm 3 mps 759 mmHg 40%
    21:00 +28°C° 0 mm 3 mps 759 mmHg 40%
    22:00 +27°C° 0 mm 3 mps 759 mmHg 40%
    23:00 +26°C° 0 mm 3 mps 759 mmHg 42%
    Show more